User: anonymous   Login
Location: CNYAC Observatory
(43.2150°N, 74.9500°W)
Time: 10:30:43
(UTC-04:00)
Language:

Meteor 1-22 Rocket - Orbit

View from above orbital plane
View from above orbital plane
View from above satellite
View from above satellite

Ground track
Ground track

The orbit data is extracted from the following two-line orbital elements,

1 08294U 75087B   16146.23574980  .00000286  00000-0  15062-3 0  9999
2 08294  81.2175  40.6195 0106659  56.6815 304.4513 14.08573436 90237
Epoch (UTC): 25 May 2016 05:39:28
Eccentricity: 0.0106659
inclination: 81.2175°
perigee height: 787 km
apogee height: 941 km
right ascension of ascending node: 40.6195°
argument of perigee: 56.6815°
revolutions per day: 14.08573436
mean anomaly at epoch: 304.4513°
orbit number at epoch: 9023

The dashed part of the orbit path shows where the satellite is in the earth's shadow,  

DLR